Home   Weather   Dalian   Past weeks
Flag for China

Past Weather in Dalian, Liaoning, China — Yesterday and Last 2 Weeks

Now
68 °F

Clear.


Feels Like: 68 °F
Forecast: 84 / 70 °F
Wind: 1 mph from West

Location: Dalian Airport

Current Time: Aug 18, 2019 at 5:03:28 am

Latest Report: Aug 18, 2019 at 4:00 am


Visibility: 10 mi

Pressure: 29.68 "Hg

Humidity: 83%

Dew Point: 63 °F

Location of DalianLocation

Past Weather in Dalian — Graph

°F

Dalian Temperature Yesterday

Maximum temperature yesterday: 81 °F (at 11:30 am)
Minimum temperature yesterday: 70 °F (at 12:30 am)
Average temperature yesterday: 75 °F

High & Low Weather Summary for the Past Weeks

 TemperatureHumidityPressure
High91 °F (Aug 6, 2:30 pm)100% (Aug 4, 4:30 am)29.86 "Hg (Aug 4, 4:30 am)
Low70 °F (Aug 17, 12:30 am)48% (Aug 17, 12:00 pm)29.18 "Hg (Aug 12, 3:00 am)
Average79 °F83%29.61 "Hg
* Reported Aug 3 3:00 am — Aug 18 3:30 am, Dalian. Weather by CustomWeather, © 2019

Note: Actual official high and low records may vary slightly from our data, if they occured in-between our weather recording intervals... More about our weather records

Advertising

Dalian Weather History for the Previous 24 Hours

Scroll right to see more
 ConditionsComfort  
Time TempWeatherWind HumidityBarometerVisibility
3:30 am
Sun, Aug 18
70 °FClear.1 mph83%29.68 "Hg10 mi
3:00 am70 °FClear.No wind83%29.68 "Hg10 mi
2:30 am70 °FClear.1 mph88%29.68 "Hg10 mi
2:00 am70 °FClear.3 mph88%29.68 "Hg10 mi
1:30 am70 °FClear.No wind88%29.68 "Hg10 mi
1:00 am72 °FClear.3 mph83%29.68 "Hg10 mi
12:30 am70 °FClear.3 mph88%29.68 "Hg10 mi
12:00 am72 °FClear.6 mph83%29.68 "Hg10 mi
11:30 pm
Sat, Aug 17
70 °FClear.6 mph88%29.65 "Hg10 mi
11:00 pm72 °FClear.3 mph83%29.68 "Hg10 mi
10:30 pm70 °FClear.6 mph88%29.65 "Hg10 mi
10:00 pm72 °FPassing clouds.3 mph78%29.65 "HgN/A
9:30 pm72 °FClear.3 mph73%29.65 "Hg10 mi
9:00 pm73 °FClear.6 mph69%29.65 "Hg10 mi
8:30 pm73 °FClear.6 mph74%29.62 "Hg10 mi
8:00 pm73 °FClear.6 mph78%29.62 "Hg10 mi
7:30 pm72 °FClear.8 mph78%29.62 "Hg10 mi
7:00 pm73 °FClear.10 mph74%29.59 "Hg10 mi
6:30 pm73 °FSunny.8 mph74%29.59 "Hg10 mi
6:00 pm75 °FPassing clouds.10 mph65%29.56 "HgN/A
5:30 pm77 °FPassing clouds.13 mph61%29.56 "HgN/A
5:00 pm77 °FPassing clouds.17 mph61%29.56 "HgN/A
4:30 pm79 °FPassing clouds.13 mph58%29.56 "HgN/A
4:00 pm79 °FPassing clouds.17 mph54%29.56 "HgN/A
3:30 pm79 °FScattered clouds.13 mph61%29.53 "HgN/A
3:00 pm79 °FScattered clouds.13 mph58%29.53 "HgN/A
2:30 pm79 °FScattered clouds.13 mph58%29.53 "HgN/A
2:00 pm79 °FScattered clouds.15 mph58%29.53 "HgN/A
1:30 pm81 °FScattered clouds.13 mph51%29.53 "HgN/A
1:00 pm81 °FScattered clouds.10 mph54%29.53 "HgN/A
12:30 pm81 °FScattered clouds.10 mph54%29.53 "HgN/A
12:00 pm81 °FScattered clouds.10 mph48%29.53 "HgN/A
11:30 am81 °FScattered clouds.10 mph54%29.53 "HgN/A
11:00 am79 °FScattered clouds.13 mph54%29.53 "HgN/A
10:30 am79 °FScattered clouds.8 mph58%29.53 "HgN/A
10:00 am77 °FScattered clouds.8 mph65%29.53 "HgN/A
9:30 am79 °FPartly sunny.8 mph65%29.53 "HgN/A
9:00 am77 °FPartly sunny.6 mph65%29.53 "HgN/A
8:30 am77 °FPartly sunny.8 mph65%29.53 "HgN/A
8:00 am77 °FPartly sunny.8 mph65%29.53 "HgN/A
7:30 am75 °FScattered clouds.8 mph69%29.50 "HgN/A
7:00 am75 °FPassing clouds.6 mph69%29.50 "HgN/A
6:30 am73 °FPassing clouds.3 mph83%29.50 "HgN/A
6:00 am72 °FScattered clouds.3 mph88%29.50 "HgN/A
5:30 am70 °FScattered clouds.6 mph94%29.50 "HgN/A
5:00 am72 °FPassing clouds.6 mph88%29.50 "HgN/A
Weather by CustomWeather, © 2019

See weather overview